Regional Weather Roundup
Issued by NWS Charleston, WV

Home | Current Version | Previous Version | Graphics & Text | Print | Product List | Glossary On
Versions: 1 2 3 4 5 6 7 8 9 10 11 12 13 14 15 16 17 18 19 20 21 22 23 24 25 26 27 28 29 30 31 32 33 34 35 36 37 38 39 40 41 42 43 44 45 46 47 48 49 50
000
ASUS41 KRLX 011010
RWRRLX
West Virginia Regional Weather Roundup
National Weather Service Charleston WV
600 AM EDT SAT AUG 01 2015

Note: "fair" indicates few or no clouds below 12,000 feet with no
significant weather and/or obstructions to visibility.

WVZ003-011100-
Northern Panhandle of West Virginia

CITY           SKY/WX    TMP DP  RH WIND       PRES   REMARKS
WHEELING       CLEAR     67  59  75 W6        29.92S
$$

WVZ009-011100-
Northwest West Virginia

CITY           SKY/WX    TMP DP  RH WIND       PRES   REMARKS
PARKERSBURG    CLEAR     68  60  75 CALM      29.96R
$$

WVZ006-011100-
Western West Virginia

CITY           SKY/WX    TMP DP  RH WIND       PRES   REMARKS
HUNTINGTON     CLEAR     65  61  87 SW6       29.97S
$$

WVZ015-011100-
West Central West Virginia

CITY           SKY/WX    TMP DP  RH WIND       PRES   REMARKS
CHARLESTON     PTCLDY    66  63  90 SW5       29.97R
$$

WVZ022-031-011100-
North Central West Virginia

CITY           SKY/WX    TMP DP  RH WIND       PRES   REMARKS
CLARKSBURG     MOCLDY    68  62  81 S3        29.93S
MORGANTOWN     MOCLDY    70  58  65 SW5       29.94S
$$

WVZ025-035-042-045-011100-
Southern West Virginia

CITY           SKY/WX    TMP DP  RH WIND       PRES   REMARKS
BECKLEY        CLEAR     62  56  80 S3        30.05S
LOGAN            N/A     64  61  88 SW3       29.98S
BLUEFIELD      CLEAR     63  55  75 W6        30.07F
LEWISBURG      CLEAR     57  55  92 CALM      30.03S
$$

WVZ047-011100-
Northern Mountains of West Virginia

CITY           SKY/WX    TMP DP  RH WIND       PRES   REMARKS
ELKINS         MOCLDY    61  57  87 CALM      29.99S
$$

WVZ052-011100-
Eastern Panhandle of West Virginia

CITY           SKY/WX    TMP DP  RH WIND       PRES   REMARKS
MARTINSBURG    CLEAR     64  59  83 S5        29.88R
PETERSBURG     PTCLDY   N/A N/A N/A NW3       29.93R
$$


USA.gov is the U.S. government's official web portal to all federal, state and local government web resources and services.